This is the latest recevied weather packets stored in our database for station/object WX5RP. If no packets are shown the sender has not sent any weather packets the latest 10 day(s).
| Time | Temp. | Humidity | Pressure | Rain* | Wind** | Luminosity | Snow |
|---|---|---|---|---|---|---|---|
| 1777347316 | 6.11° C | 43% | 1015.5 hPa | 0 mm | - | 0 W/m² | - |
| 1777346716 | 6.11° C | 43% | 1014.6 hPa | 0 mm | - | 0 W/m² | - |
| 1777346116 | 7.22° C | 40% | 1014.9 hPa | 0 mm | - | 0 W/m² | - |
| 1777345515 | 8.33° C | 38% | 1015.6 hPa | 0 mm | - | 0 W/m² | - |
| 1777344915 | 8.89° C | 36% | 1015.2 hPa | 0 mm | - | 8 W/m² | - |
| 1777344316 | 10° C | 34% | 1015.5 hPa | 0 mm | - | 12 W/m² | - |
| 1777343715 | 10.56° C | 32% | 1015.1 hPa | 0 mm | - | 20 W/m² | - |
| 1777343117 | 11.11° C | 31% | 1014.9 hPa | 0 mm | - | 38 W/m² | - |
| 1777342517 | 11.11° C | 31% | 1014.9 hPa | 0 mm | - | 54 W/m² | - |
| 1777341917 | 11.67° C | 30% | 1015.1 hPa | 0 mm | - | 61 W/m² | - |
| 1777341317 | 12.22° C | 29% | 1014.9 hPa | 0 mm | - | 101 W/m² | - |
| 1777340717 | 12.22° C | 29% | 1014.9 hPa | 0 mm | - | 100 W/m² | - |
| 1777340117 | 12.22° C | 29% | 1014.6 hPa | 0 mm | - | 105 W/m² | - |
| 1777339517 | 12.78° C | 30% | 1014.9 hPa | 0 mm | - | 157 W/m² | - |
| 1777338917 | 12.78° C | 31% | 1014.6 hPa | 0 mm | - | 183 W/m² | - |
| 1777338317 | 12.78° C | 30% | 1014.9 hPa | 0 mm | - | 200 W/m² | - |
| 1777337717 | 12.78° C | 31% | 1014.7 hPa | 0 mm | - | 249 W/m² | - |
| 1777337117 | 12.78° C | 30% | 1014.7 hPa | 0 mm | - | 155 W/m² | - |
| 1777336517 | 12.22° C | 31% | 1014.6 hPa | 0 mm | - | 272 W/m² | - |
| 1777335917 | 12.22° C | 31% | 1014.6 hPa | 0 mm | - | 138 W/m² | - |
| 1777335319 | 12.22° C | 30% | 1014.2 hPa | 0 mm | - | 142 W/m² | - |
| 1777334716 | 12.22° C | 29% | 1014.7 hPa | 0 mm | - | 183 W/m² | - |
| 1777334116 | 12.78° C | 31% | 1015 hPa | 0 mm | - | 173 W/m² | - |
| 1777333516 | 12.78° C | 29% | 1015.3 hPa | 0 mm | - | 175 W/m² | - |
| 1777332917 | 12.78° C | 29% | 1015.4 hPa | 0 mm | - | 281 W/m² | - |
* Rain latest hour (hover to see other rain measurements)
** Current wind speed in m/s (hover to see current wind gust speed)